ONEWEB-0060, 45455

Orbit data source: Space-Track

ONEWEB-0060, 45455 is a payload satellite owned by One Web (UK) in LEO that was launched on Sat, 21 Mar 2020 UTC via a SOYUZ-2-1B launch vehicle from the Tyuratam Missile And Space Complex (TTMTR). Payload-class satellites include a variety of spacecraft equipped with specific instruments for various scientific and technological missions. These include communications satellites like Starlink; space stations such as the ISS; scientific satellites like the Hubble; Earth observation satellites from companies like Planet Labs, Umbra, and HawkEye 360; GPS; miniature CubeSats for education and research; and military/defense satellites.

Loading next visibility...
Identifier
45455, 2020-020AH
Orbit
LEO
Last TLE update
12 hours ago
Origin
Manufacturer
One Web
Mission
Operational Commercial Communications
Bus & Motor
ARROW, Unknown motor
Mass
148 kg wet, ~140 kg dry
Launch date (UTC)
2020-03-21 (5 years ago)
Launch vehicle
SOYUZ-2-1B
Launch site
Tyuratam Missile And Space Complex (TTMTR)
Object type
Payload
Rocket body
Debris
Shape & HBR
Trap Box + 2 Pan, 5 m
Radar Cross Section
2.957 m², Large (>1 m²)

Expand to show TLE details & history

TLE from 12 hours ago
0 ONEWEB-0060
1 45455U 20020AH  25181.74595745  .00000462  00000-0  12684-2 0  9995
2 45455  87.8840  91.1293 0001860  73.4559 286.6773 13.11416243256483
Epoch: 2025-06-30T17:54Z
TLE epoch observation values (Epoch: 2025-06-30T17:54:10.723Z)
Latitude
-0.00005°
Longitude
-96.46673°
Altitude
1,220.169 km
Speed
7.244 km/s
True Right ascension
06h 04m 31s
True Declination
0° 00' 00"
Sunlit
Object was in daylight at epoch
Visualization orbit readout
Latitude
-82.92934°
Longitude
-113.80998°
Altitude
1,247.491 km
Speed
7.23 km/s
Apparent Right ascension
05h 45m 54s
Apparent Declination
-63° 25' 07"
Sunlit
Object is in daylight
Visualization observer readout
Local Sidereal Time
17:55:35
Azimuth
177.29° S
Elevation
-66.453°
Doppler factor
1
Orbital elements
Apogee altitude
1,216.216 km
Perigee altitude
1,213.391 km
Semi-major axis
7,592.941 km
Eccentricity
0.00019
Inclination
87.884°
RAAN
91.1293°
Arg. of periapsis
73.4559°
True anomaly
Unknown
Mean anomaly
286.6773°
Eccentric anomaly
Unknown
Mean motion
3.28041 °/min
Orbital period
109.74 mins
BSTAR
0.0012684
Loading maneuver chart data...
Loading SW <> Apogee altitude chart data...
Loading historical data...
Loading historical data...
Loading historical data...
Loading historical data...
Loading historical data...
Loading historical data...
Loading historical data...

ONEWEB-0060 Visibility forecast

Observer location: undefined°, undefined°

Span
Click to sort rows by Start time (UTC) header in descending order
Start Az.
Max El. time (UTC)
Max El. Az.
Max El.
End time (UTC)
End Az.
11 mins2025-07-01 07:19:49.319Z337.597° N2025-07-01 07:25:49.319Z277.2° WNW27.595°2025-07-01 07:30:49.319Z227.195° WSW
12 mins2025-07-01 17:48:49.319Z153.752° SSE2025-07-01 17:54:49.319Z81.348° E38.036°2025-07-01 18:00:49.319Z13.108° NNE
11 mins2025-07-01 19:39:49.319Z230.266° WSW2025-07-01 19:44:49.319Z280.585° WNW25.313°2025-07-01 19:50:49.319Z337.727° N
12 mins2025-07-02 05:18:49.319Z19.59° NNE2025-07-02 05:23:49.319Z75.599° E33.231°2025-07-02 05:30:49.319Z150.465° SSE
|